Regional Weather Roundup
Issued by NWS Cleveland, OH

Home | Current Version | Previous Version | Graphics & Text | Print | Product List | Glossary On
Versions: 1 2 3 4 5 6 7 8 9 10 11 12 13 14 15 16 17 18 19 20 21 22 23 24 25 26 27 28 29 30 31 32 33 34 35 36 37 38 39 40 41 42 43 44 45 46 47 48 49 50
000
ASUS41 KCLE 300402
RWRCLE
OHIO REGIONAL WEATHER ROUNDUP
NATIONAL WEATHER SERVICE CLEVELAND, OH
1200 AM EDT THU OCT 30 2014

NOTE: "FAIR" INDICATES FEW OR NO CLOUDS BELOW 12,000 FEET WITH NO
SIGNIFICANT WEATHER AND/OR OBSTRUCTIONS TO VISIBILITY.

OHZ001>008-015>018-024>027-034-035-043-044-300500-
   NORTHWEST OHIO

CITY           SKY/WX    TMP DP  RH WIND       PRES   REMARKS
DEFIANCE       CLOUDY    42  38  85 CALM      30.12R
FINDLAY        CLOUDY    44  37  76 W8        30.10S
TOLEDO EXPRESS CLOUDY    42  38  85 W7        30.10S
TOLEDO EXEC    PTCLDY    42  36  79 W7        30.10S
LIMA           CLOUDY    44  36  73 W9        30.11S
$$

OHZ009>014-019>023-028>033-038-089-300500-
   NORTHEAST OHIO

CITY           SKY/WX    TMP DP  RH WIND       PRES   REMARKS
CLE-HOPKINS    CLOUDY    43  40  89 SW8       30.09S
CLE-LAKEFRONT    N/A    N/A N/A N/A MISG        N/A
CUY CO. ARPT   NOT AVBL
LORAIN-ELYRIA  CLOUDY    43  38  82 W9        30.08S
ASHTABULA      CLOUDY    43  42  97 SW5       30.05R
AKRON-CANTON   CLOUDY    45  36  70 NW12      30.06S
WOOSTER        CLOUDY    44  36  73 NW10      30.07F
MANSFIELD      CLOUDY    42  35  76 W6        30.08S
YOUNGSTOWN     CLOUDY    43  39  86 W7        30.04S
$$

OHZ042-051>053-060>062-070>072-077>081-300500-
  SOUTHWEST OHIO

CITY           SKY/WX    TMP DP  RH WIND       PRES   REMARKS
CINC-COVINGTON PTCLDY    41  33  73 CALM      30.13S
CINC-LUNKEN    MOCLDY    46  34  62 N6        30.15S
HAMILTON       CLOUDY    47  36  65 NW6       30.15S
DAYTON         CLOUDY    45  35  68 NW8       30.13S
WRIGHT-PAT AFB CLOUDY    46  35  65 NW9       30.12S
DAYTON GENERAL CLOUDY    46  35  65 NW8       30.12S
WILMINGTON     CLOUDY    44  33  65 W6        30.11S
$$

OHZ036-037-039>041-045>050-054>059-063>069-073>076-082>088-300500-
  CENTRAL AND SOUTHEAST OHIO

CITY           SKY/WX    TMP DP  RH WIND       PRES   REMARKS
COLUMBUS       CLOUDY    46  33  60 NW7       30.10S
OSU AIRPORT    CLOUDY    45  34  65 NW10      30.10F
BOLTON FIELD   CLOUDY    44  36  71 W6        30.11S
RICKENBACK AFB CLOUDY    45  34  66 NW8       30.10S
NEWARK         CLOUDY    44  33  65 NW7       30.09S
MARION         CLOUDY    44  35  70 NW10      30.10S
LANCASTER      CLOUDY    41  33  73 CALM      30.11R
ZANESVILLE     CLEAR     41  33  73 NW6       30.09S
NEW PHILLY     NOT AVBL
$$



USA.gov is the U.S. government's official web portal to all federal, state and local government web resources and services.